Reflectivity
-20 -20 -20 -20 -20 -20 -20 -20 -20 -20 -20 -20 -20 -20 -20 -20 -20 -20 -20 -20 -20 -20 -20 -20 -20 -20 -20 -20 -20 -20 -20 -20 -20 -12 -20 -20 -20 -20 -20 -20 -20 -20 -20
-20 -20 -20 -20 -20 -20 -20 -20 -20 -20 -20 -20 -20 -20 -20 -20 -20 -20 -20 -20 -20 -20 -20 -20 -20 -20 -20 -20 -20 -20 -20 -20 -20 -20 -20 -20 -20 -20 -20 -20 -20 -20 -20
-20 -20 -20 -20 -20 -20 -20 -20 -20 -20 -20 -20 -20 -20 -20 -20 -20 -20 -20 -20 -20 -20 -20 -20 -20 -20 -20 -20 -20 -20 -20 -20 -20 -20 -20 -20 -20 -20 -17 -7 3 -10 -17
-20 -20 -20 -20 -20 -20 -20 -20 -20 -20 -20 -20 -20 -20 -20 -20 -20 -20 -20 -20 -20 -20 -20 -20 -20 -20 -20 -20 -20 -20 -20 -20 -20 -20 -20 -20 8 12 -5 -3 9 7 -5
-20 -20 -20 -20 -20 -20 -20 -20 -20 -20 -20 -20 -20 -20 -20 -20 -20 -20 -20 -20 -20 -20 -20 -20 -20 -20 -20 -20 -20 -20 -20 -20 -20 -20 -20 -20 -20 -17 16 -15 -20 -2 -4
-20 -20 -20 -20 -20 -20 -20 -20 -20 -20 -20 -20 -20 -20 -20 -20 -20 -20 -20 -20 -20 -20 -20 -20 -20 -20 -20 -20 -20 -20 -20 -20 -20 -20 -20 -20 -18 12 4 4 -10 -4 5
-20 -20 -20 -20 -20 -20 -20 -20 -20 -20 -20 -20 -20 -20 -20 -20 -20 -20 -20 -20 -20 -20 -20 -20 -20 -20 -20 -20 -20 -20 -20 -20 -20 -20 -20 -16 -9 11 2 -1 9 14 7
-20 -20 -20 -20 -20 -20 -20 -20 -20 -20 -20 -20 -20 -20 -20 -20 -20 -20 -20 -3 -20 -20 -20 -20 -20 -20 -20 -20 -20 -20 -20 -20 -20 -20 -20 -8 16 -0 4 -20 -16 -20 -20
-20 -20 -20 -20 -20 -20 -20 -20 -20 -20 -20 -20 -20 -20 -20 -20 -20 -0 -18 -20 -20 -20 -20 -20 -20 -20 -20 -20 -20 -20 -20 -20 -20 -20 -20 -16 14 8 16 -20 -3 3 -20
-20 -20 -20 -20 -20 -20 -20 -20 -20 -20 -20 -20 -20 -20 -20 -20 -2 10 -20 -20 -20 -20 -20 -20 -20 -20 -20 -20 -20 -20 -20 -20 -20 -20 -20 -20 9 6 -9 -20 12 13 17
-20 -20 -20 -20 -20 -20 -20 -20 -20 -20 -20 -20 -20 -20 -20 -20 -20 -20 -20 -20 -20 -20 -20 -20 -20 -20 -20 -20 -20 -20 -20 -6 10 -4 -20 -20 -17 2 10 13 -20 -20 -17
-20 -20 -20 -20 -20 -20 -20 -20 -20 -20 -20 -20 -20 -20 -20 -20 -20 -20 -20 -20 -20 -20 -20 -20 -20 -20 -20 -20 -20 -20 -20 -20 -16 -20 -20 -20 -2 12 -18 -20 -20 -20 -20
-20 -20 -20 -20 -20 -20 -20 -20 -20 -20 -20 -20 -20 -20 -20 -20 -20 -20 -20 -20 -20 -20 -20 -20 -20 -20 -20 -20 -20 -20 -20 -20 -20 -20 -20 -20 1 -11 -20 -20 -20 -20 -20
-20 -20 -20 -16 -9 -20 -20 -18 -20 -20 -20 -20 -20 -20 -20 -20 -20 -20 -20 -20 -20 -20 -20 -20 -20 -20 -20 -20 -20 -20 -20 -20 -20 -20 -20 -20 -10 4 -20 -20 -20 -20 -20
-20 -20 -20 -20 -20 -20 -20 -20 -20 -20 -20 -20 -20 -10 4 -20 -20 -20 -20 -20 -20 -20 -20 -20 -20 -20 -20 -20 -20 -20 -20 -20 -20 -20 -20 -20 -20 -20 -20 -18 -15 -20 -20
-20 -20 -20 -20 -20 -20 -19 -17 -17 -12 -20 -4 7 18 -17 -14 -4 5 -20 -20 -20 -20 -20 -20 -20 -20 -20 -20 -20 -20 -20 -20 -20 -20 -20 -20 -20 -20 -20 14 15 13 13
-20 -20 -20 -20 -19 -18 4 -20 16 7 8 6 12 -0 -20 14 3 12 8 -12 -20 -20 1 -20 -20 -20 -20 -20 -20 -20 -20 -20 -20 -20 -20 -20 -20 -20 -20 8 16 10 0
-20 -20 -20 -20 -20 -20 -20 -20 -20 -14 4 6 -15 -5 9 12 9 -5 -19 7 14 -20 -14 -20 -9 -19 -20 -20 -20 -20 -20 -20 -20 -20 -20 -20 -20 -20 -20 -20 10 9 11
-20 -20 -20 -20 -8 -17 -14 -20 -8 -20 10 12 7 21 7 11 -6 -20 -11 4 18 1 2 -14 -3 -13 -20 -20 1 -20 -20 -20 -20 -20 -20 -20 -20 -20 -20 -20 8 9 -0
-20 -20 9 13 -20 13 -19 -20 -20 -20 15 17 18 15 23 8 12 14 7 13 -10 6 -7 19 -1 -20 -20 -20 6 -20 -20 -20 -20 -20 -20 -20 -20 -20 -20 -20 -20 -20 -16
-20 -20 -20 21 28 24 -20 -20 -20 14 -10 4 19 13 -5 7 8 17 18 15 13 8 -1 21 18 9 -20 -20 -20 -19 -20 -20 -20 -20 -20 -20 -20 -20 -20 -20 -20 -20 -10
-20 -20 -20 -20 -20 -20 -20 -20 -20 -20 -16 -20 -6 7 -5 -20 -20 -18 -9 -8 5 17 13 22 18 14 17 -19 -20 -20 -20 -20 -20 -16 -20 -20 -20 -10 -20 -20 -20 -20 -20
-20 -20 -20 -20 -20 -20 -20 -20 -20 -20 -20 -20 -20 -20 -20 -20 -20 -20 11 -20 -20 -10 -3 7 17 13 13 15 6 -20 -20 -20 -20 -20 -20 -20 -20 -17 -20 -20 -20 -1 5
-20 -20 -20 -20 -20 -20 -20 -20 -20 -20 -20 -20 -20 -20 -20 -20 -20 -11 -6 -13 9 -10 -20 -5 2 26 32 29 33 24 11 -19 -20 -18 -19 -18 -1 -15 -3 -20 -20 -10 8
-20 -20 -20 -20 -20 -20 -20 -20 -20 -20 -20 -20 -20 -20 -20 -6 -18 -20 -19 8 3 16 9 25 1 25 25 26 30 44 35 27 4 12 -3 0 10 19 7 9 -8 -20 14
-20 -20 -20 -20 -20 -20 -20 -20 -20 -20 -20 -17 -20 -20 -20 -20 6 2 8 14 21 19 20 21 27 29 22 26 32 32 42 28 25 30 29 19 28 20 14 11 11 9 14
Wind_Speed
7 12 16 15 13 14 13 13 14 17 17 16 15 15 13 14 17 15 13 13 12 13 12 11 10 11 10 10 10 11 10 10 11 11 14 15 14 15 17 13 13 12 14
16 13 17 16 15 14 14 14 15 16 17 16 15 14 12 12 14 15 13 12 12 12 11 11 10 9 9 9 8 7 10 11 9 8 11 12 13 15 16 14 13 11 14
14 13 14 15 15 16 16 15 15 16 17 16 14 14 12 12 11 12 12 11 11 13 12 10 10 9 8 8 7 8 8 8 7 5 7 4 6 14 15 15 12 14 15
14 10 10 14 14 14 15 15 15 16 16 15 13 13 11 11 10 10 12 12 12 11 9 9 8 8 7 7 7 8 6 5 4 5 6 6 6 12 16 16 15 15 15
13 12 12 15 14 14 15 15 15 15 15 14 13 14 12 12 14 13 12 10 9 9 8 8 6 6 5 5 6 6 8 8 10 10 9 5 4 12 17 17 16 18 17
14 13 12 14 15 16 16 16 15 15 14 14 13 12 13 13 14 12 9 8 8 8 8 7 6 5 4 4 4 5 8 14 15 11 10 9 7 16 18 17 17 17 17
12 12 14 14 15 15 15 15 14 14 13 13 14 14 13 12 13 11 7 7 4 4 6 6 5 5 4 4 2 6 9 14 10 9 10 8 10 17 19 19 17 17 17
12 11 12 15 14 13 13 13 12 12 12 12 11 11 10 11 11 8 6 5 5 5 5 5 3 3 4 3 2 3 5 12 11 11 7 8 14 17 17 18 16 15 16
12 11 8 10 11 12 12 11 11 12 12 11 11 11 11 13 11 9 6 6 6 7 6 6 5 3 3 3 3 2 4 11 7 8 9 8 17 18 15 16 16 14 15
7 9 9 7 7 6 6 11 11 11 10 12 13 13 12 13 10 8 5 5 6 6 6 4 5 6 5 4 4 4 6 14 10 9 8 9 16 15 14 16 12 13 13
7 7 7 7 7 7 6 7 9 12 14 14 13 13 10 6 6 7 7 8 7 8 7 7 7 6 6 5 5 2 5 6 9 6 5 17 16 14 13 12 13 13 13
8 8 11 11 10 9 8 7 6 7 5 4 5 6 4 5 5 6 6 9 9 8 8 8 8 7 6 3 1 6 4 8 7 6 7 18 16 12 13 13 13 13 15
7 7 10 10 8 9 7 6 4 4 4 4 7 6 7 5 5 4 3 3 3 7 3 4 4 3 4 4 2 6 10 7 6 6 10 18 13 12 12 12 13 15 14
10 10 7 8 6 6 5 6 7 6 5 5 5 6 3 4 6 7 4 5 4 3 5 5 3 4 6 4 3 11 10 7 6 6 9 17 14 11 11 12 13 13 15
12 11 11 10 9 7 9 7 7 7 6 6 6 6 4 3 6 8 7 6 5 5 4 4 5 5 5 5 5 11 11 10 9 7 7 18 17 11 9 12 11 13 14
14 11 8 9 10 8 7 7 5 6 5 4 4 5 6 4 4 4 6 7 7 6 5 5 5 5 5 4 10 10 11 9 10 10 7 9 17 13 9 9 10 12 13
15 14 12 10 10 9 8 9 6 5 5 5 5 5 5 4 5 4 4 5 7 6 8 6 5 4 5 4 8 9 9 11 10 10 7 6 10 12 11 11 9 9 14
16 17 15 11 14 13 11 9 7 6 6 6 5 5 6 7 6 5 4 5 5 4 4 6 5 5 5 5 5 8 8 9 10 10 9 7 7 4 9 13 9 11 11
11 15 13 9 8 7 5 5 7 7 6 5 5 5 7 8 6 5 4 4 4 3 3 5 4 7 6 5 6 7 8 9 10 9 10 9 6 5 3 12 12 12 12
8 14 8 6 8 4 4 4 3 3 3 4 5 5 7 7 8 7 5 5 4 3 3 5 6 4 8 9 8 6 8 5 7 9 9 8 7 6 5 5 4 5 12
11 12 8 10 6 4 2 2 1 3 3 2 4 7 8 8 9 9 5 4 6 8 9 8 4 5 5 9 7 4 4 7 11 9 9 9 10 9 7 6 3 4 4
13 9 8 8 8 5 3 2 2 3 3 3 4 5 9 9 9 9 9 7 5 6 7 10 6 4 4 10 10 8 5 2 3 8 7 7 7 6 7 8 7 7 3
10 8 8 7 7 5 5 3 3 3 3 1 1 2 2 6 10 10 8 6 4 8 9 6 6 8 9 9 13 9 8 6 9 2 6 7 7 5 4 7 9 9 7
6 7 6 7 8 6 6 4 1 1 2 1 2 3 4 6 5 5 6 5 5 3 3 1 2 4 1 4 3 4 5 9 7 6 3 6 6 8 6 8 9 8 9
7 6 5 6 6 6 6 5 2 2 1 1 1 2 2 3 5 5 5 5 4 3 4 5 3 5 3 3 3 3 1 6 6 11 9 6 5 3 5 7 8 6 8
6 7 7 7 7 7 7 6 6 5 4 2 2 2 1 1 1 2 3 3 2 3 3 2 3 3 5 5 4 3 2 5 5 9 10 6 8 2 4 5 7 8 7
Wind_Direction
137 136 124 121 120 129 124 123 120 119 120 119 115 112 110 110 111 106 101 101 100 97 94 82 70 62 58 60 66 74 70 61 52 64 75 75 77 67 80 75 78 74 68
141 142 130 128 127 124 125 126 128 129 124 123 119 116 116 115 112 113 111 111 106 100 91 83 69 57 56 53 51 59 65 60 56 55 88 90 84 79 78 76 77 76 71
133 138 133 132 130 130 130 132 135 131 125 124 127 124 123 118 119 118 119 124 115 105 100 92 77 58 42 33 26 37 61 79 89 101 93 75 82 91 86 72 77 78 71
131 132 132 128 127 128 131 134 131 129 129 129 132 127 131 128 128 111 106 106 113 110 101 97 90 77 55 23 24 28 31 66 75 111 122 78 61 90 90 80 68 75 66
136 136 142 137 134 132 132 134 137 135 135 135 137 137 141 124 118 113 107 110 116 117 112 108 95 87 74 54 37 21 22 13 68 84 115 99 61 77 77 76 70 68 64
145 144 143 141 138 141 144 145 140 139 142 141 141 140 136 136 121 109 107 106 119 125 128 132 136 128 112 80 61 47 23 84 83 80 84 88 95 94 85 77 71 69 66
133 146 148 146 147 149 149 147 143 143 142 140 141 146 148 137 123 112 104 105 112 126 133 151 152 143 139 121 101 70 48 91 95 92 87 85 94 95 91 81 73 69 65
136 144 151 151 151 155 154 150 146 145 142 138 142 132 131 126 111 121 139 143 111 134 149 152 155 156 151 141 161 92 89 111 101 95 87 99 98 94 89 88 75 72 70
135 134 142 152 157 161 158 150 147 147 147 142 131 121 118 114 121 125 138 159 157 150 162 157 149 163 170 184 218 185 95 113 110 108 104 97 94 88 83 77 75 71 71
128 140 145 148 145 149 158 150 153 154 143 135 128 124 131 114 117 123 166 165 161 161 159 159 155 160 171 207 232 271 49 132 111 102 104 102 95 86 82 76 86 84 81
129 147 150 148 149 150 150 162 151 148 145 141 138 143 131 131 139 159 179 174 168 159 160 163 170 181 186 211 237 38 58 104 97 100 96 97 86 79 85 92 84 84 89
165 181 171 165 168 165 163 146 143 149 135 135 130 156 143 148 160 168 178 167 166 157 168 177 182 197 191 205 231 81 71 98 93 97 95 92 93 98 101 95 95 89 85
181 178 177 168 169 164 153 151 149 146 147 151 159 179 174 158 153 133 134 131 138 160 175 188 218 213 218 197 187 99 100 108 112 105 101 98 100 100 93 90 88 93 92
175 173 179 162 160 166 139 164 162 162 164 165 181 195 208 153 150 153 162 167 168 182 188 188 204 247 261 256 188 119 115 116 115 107 108 106 98 94 90 95 103 97 95
171 161 175 171 174 174 147 152 153 163 166 174 178 183 182 182 180 165 172 170 178 182 199 202 191 195 253 274 111 122 119 116 108 101 98 98 104 98 101 110 105 104 98
166 177 169 165 175 146 143 144 145 146 149 143 155 180 192 187 197 180 179 181 181 183 191 199 202 197 197 177 112 119 123 116 108 106 103 104 105 103 91 91 76 117 111
172 175 182 159 140 144 141 149 160 169 164 169 173 184 191 214 198 210 199 189 187 181 188 195 202 192 162 153 122 131 128 127 122 117 110 108 102 102 104 101 74 102 122
163 176 183 172 160 162 161 160 164 174 174 177 174 181 197 210 208 199 201 202 193 185 185 194 186 191 165 155 137 147 140 139 139 137 130 118 107 113 109 105 102 70 127
181 170 175 157 154 148 139 144 157 161 174 177 174 192 197 207 205 201 196 211 203 205 212 207 199 180 166 163 156 135 154 151 154 143 134 125 126 116 101 116 108 83 72
56 163 131 122 116 114 108 107 108 139 152 179 183 191 212 213 212 205 215 202 202 217 251 249 204 193 172 164 158 131 139 131 139 141 146 142 138 135 127 93 86 62 68
54 89 92 109 127 139 95 106 159 190 170 189 198 196 198 210 216 222 218 195 198 206 223 228 229 206 167 163 130 109 76 127 133 136 138 145 153 153 143 127 122 84 64
55 80 93 117 129 150 129 144 177 163 198 180 189 195 204 202 207 206 207 211 220 247 227 222 193 198 219 180 167 140 153 113 142 144 140 133 136 132 148 150 131 109 103
64 72 88 94 113 111 127 91 46 17 8 360 298 332 8 217 205 200 210 206 189 203 216 221 221 212 211 210 183 158 154 181 145 156 148 140 139 123 117 114 123 111 101
84 78 84 86 89 98 83 63 34 246 252 318 30 29 23 32 57 71 99 93 83 20 89 67 257 178 51 227 223 219 155 134 153 157 133 142 135 133 127 113 113 120 110
111 107 101 98 106 125 127 137 126 285 27 13 47 62 73 53 54 62 65 82 78 63 82 15 95 128 99 119 195 207 340 152 132 148 150 144 125 142 121 120 123 109 101
146 162 175 175 183 166 157 169 180 203 192 232 209 221 213 123 50 59 82 80 109 102 96 88 88 62 116 123 184 137 304 157 143 149 135 135 131 99 116 91 113 121 116